Location: Hains Lake
(37.8540°N, 99.8578°W)
Time: 12:03:15
(UTC+00:00)

CZ-4B R/B - Pass Details

Date: 11 December 2019
Orbit: 809 x 881 km, 99.1° (Epoch: 19 January)

Event Time Altitude Azimuth Distance (km) Brightness Sun altitude
Rises 12:01:08 0° 17° (NNE) 3,457 6.4 -19.8°
Reaches altitude 10° 12:03:33 10° 20° (NNE) 2,524 5.7 -19.4°
Maximum altitude 12:09:07 64° 102° (ESE) 969 3.7 -18.3°
Drops below altitude 10° 12:14:43 10° 184° (S) 2,529 5.8 -17.2°
Sets 12:17:08 0° 187° (S) 3,464 6.5 -16.8°
